RH
40 42 56 57 64 47 51 54 45 59 63 62 57 58 74 72 60 86 86 78 68 66 71 70 71 68 70 76 79 77 77 67 67 66 58 53 55 53 53 55 56 54 50 45 53 55 53 52 52
57 60 62 65 62 44 44 43 57 44 52 57 62 66 72 78 82 90 89 68 65 63 63 65 65 66 74 79 77 76 68 58 57 52 51 50 46 48 51 53 54 52 49 52 56 57 55 53 53
53 62 64 73 54 43 52 46 46 42 51 53 60 66 79 92 88 88 79 68 61 64 64 68 68 72 75 65 60 56 56 54 48 44 42 45 47 47 51 52 51 50 52 53 50 53 56 55 58
51 59 55 50 32 25 45 48 45 46 50 59 65 74 82 85 86 85 87 66 62 67 70 70 72 73 70 57 65 65 63 62 58 57 54 52 54 55 54 53 52 51 47 48 51 53 54 56 58
46 43 53 34 26 26 39 44 44 51 57 63 64 82 84 81 84 86 82 68 66 67 68 70 72 71 69 62 58 63 59 58 61 59 57 55 56 54 50 47 44 42 44 48 52 54 54 58 56
35 38 59 58 42 20 33 39 44 58 72 76 81 82 90 87 88 91 75 66 66 64 65 69 71 69 65 65 67 66 64 60 58 61 58 59 58 54 45 43 44 46 51 53 54 54 54 54 53
33 58 51 41 43 38 40 42 52 69 67 68 72 82 91 86 82 78 76 66 64 62 62 68 69 65 62 61 62 64 63 59 55 53 55 54 53 52 50 53 56 56 59 57 53 51 52 50 53
24 32 42 47 46 28 39 38 48 56 53 66 63 86 91 80 76 78 69 68 68 61 58 62 68 65 63 60 55 57 60 56 52 52 54 55 58 62 62 72 68 64 65 54 52 64 58 49 58
29 55 52 43 37 30 23 36 44 45 65 54 56 65 70 82 87 85 80 82 75 67 58 61 59 59 60 62 61 56 55 53 51 55 57 61 63 71 53 69 54 70 75 73 60 74 75 72 68
28 45 39 31 33 31 25 29 35 50 54 56 61 63 81 89 93 89 89 86 80 77 70 65 66 63 58 59 63 61 55 50 50 55 59 65 68 80 77 72 76 74 78 70 70 72 75 76 75
21 27 26 27 26 27 32 36 37 48 58 58 60 69 80 82 87 83 81 70 65 72 70 73 73 70 65 66 67 66 61 57 59 57 66 74 76 79 75 72 74 76 76 76 78 78 80 78 78
24 19 23 29 27 26 30 32 32 43 52 51 58 66 75 79 79 78 77 73 72 71 69 74 77 74 79 76 69 75 76 71 70 72 76 73 66 68 76 76 70 70 72 76 77 80 78 72 69
18 21 23 24 22 23 28 30 40 47 53 54 56 62 70 71 67 69 64 70 73 72 74 81 81 73 79 75 83 79 77 75 77 79 80 77 81 77 80 75 75 72 71 71 72 73 73 76 76
18 22 24 24 26 29 30 32 33 52 54 53 54 55 62 62 64 66 68 72 76 66 75 76 77 75 75 80 76 80 78 83 86 91 84 82 89 85 80 83 77 75 76 71 72 74 74 67 64
18 24 21 27 29 34 33 41 40 49 54 55 55 54 53 56 60 63 60 64 68 68 78 71 77 76 74 76 85 82 92 90 87 89 86 81 84 75 80 76 73 75 78 75 72 74 71 66 67
15 18 26 25 28 31 36 55 40 49 52 54 56 55 55 55 54 58 60 62 64 62 69 70 72 68 74 73 72 72 73 75 76 72 81 85 80 80 84 76 77 76 74 73 80 80 71 64 64
18 21 26 25 24 32 40 52 38 40 45 48 51 53 54 53 54 53 54 56 57 60 63 67 66 65 70 70 75 76 76 76 75 74 76 78 78 84 79 81 85 83 77 78 75 72 73 68 62
19 25 22 26 23 27 42 47 40 39 41 43 44 46 49 51 52 52 54 55 56 57 60 64 67 68 71 84 81 78 73 73 69 71 73 79 80 86 78 99 88 78 75 77 79 74 75 73 69
16 23 24 21 18 40 42 46 42 41 42 44 45 44 45 46 49 50 52 54 55 56 60 66 68 68 76 74 69 70 66 70 75 76 80 88 94 94 82 74 75 67 64 66 74 66 68 69 83
13 17 24 21 18 26 45 46 40 40 43 44 46 47 44 47 49 51 52 53 55 57 62 65 66 60 59 62 57 62 58 49 66 72 74 77 77 78 73 61 54 66 80 77 71 81 75 76 79
14 22 22 21 20 27 40 48 47 41 39 40 44 45 47 50 52 52 54 56 58 61 57 60 59 56 57 48 52 56 62 54 59 64 71 80 76 67 59 51 59 74 71 72 75 74 78 82 79
15 12 16 22 22 37 31 59 49 40 39 37 40 47 47 49 50 54 58 54 59 60 56 62 57 36 34 44 42 49 61 62 50 70 76 72 70 48 59 76 70 73 76 70 59 75 78 82 78
12 10 10 23 23 30 33 49 39 44 44 41 39 42 42 45 47 52 57 54 56 64 66 61 38 39 39 36 18 41 64 44 52 60 64 66 53 64 67 73 80 81 68 51 61 61 66 68 73
8 8 12 19 26 34 33 34 45 50 34 30 34 40 40 43 47 48 51 53 58 65 66 65 35 36 40 18 26 47 48 32 41 53 56 59 49 47 62 70 76 72 51 45 56 67 66 77 76
8 13 18 17 22 22 21 36 29 38 28 27 31 38 38 39 48 46 50 56 60 62 63 59 48 38 38 28 60 21 22 12 16 43 54 42 33 55 68 72 69 55 42 45 67 70 69 73 70
11 14 23 21 29 22 20 20 14 32 27 26 25 33 36 41 46 46 44 44 46 54 56 54 47 53 42 44 69 24 22 18 26 27 30 42 60 50 49 62 60 62 52 68 77 74 74 65 73
10 16 16 22 23 27 24 20 22 28 30 26 26 31 34 39 46 46 41 40 44 46 49 50 43 45 46 49 31 23 27 18 24 37 54 66 64 47 58 61 72 70 58 56 74 77 81 84 82
8 12 16 25 23 22 25 23 30 37 37 33 30 29 31 36 44 46 42 39 39 40 40 45 46 41 43 42 24 20 32 27 24 32 48 40 30 43 58 63 54 63 69 57 61 70 72 75 72
15 15 18 21 26 26 26 28 29 35 37 39 35 28 28 32 37 40 40 38 38 39 44 42 50 53 52 54 26 23 40 39 35 43 32 32 39 43 45 57 60 54 47 60 68 67 67 73 79
14 15 20 23 20 27 29 29 24 29 32 30 30 30 28 27 30 31 33 38 39 40 46 43 50 55 54 62 30 24 41 39 41 40 33 29 28 37 38 50 48 54 58 60 59 61 66 74 69
Wind_Speed
12 12 4 1 3 3 7 6 4 10 3 2 6 12 13 14 3 6 18 20 21 22 23 25 25 26 26 25 25 25 24 26 27 28 24 20 20 21 20 18 15 12 10 10 11 10 10 10 10
16 11 2 2 4 2 4 15 11 11 12 15 17 11 15 7 16 20 25 21 23 24 24 24 24 24 24 24 25 25 26 28 27 26 24 20 18 18 17 14 12 11 9 9 8 8 8 9 10
12 5 3 3 1 4 10 13 12 20 20 11 9 17 8 11 23 26 25 24 24 25 25 24 23 23 24 25 26 26 25 23 21 20 18 15 15 15 14 11 11 10 8 7 6 5 5 7 9
8 6 2 2 6 2 15 16 24 18 10 16 17 12 12 10 19 25 24 26 25 25 24 24 23 23 25 26 26 25 23 22 20 19 18 16 15 14 12 10 9 7 6 5 5 4 5 7 8
6 2 3 4 2 9 17 31 29 17 12 21 15 8 10 14 27 27 26 25 26 25 24 23 23 24 25 24 23 21 20 20 20 19 18 15 13 11 9 7 5 3 4 5 5 5 6 6 6
7 3 5 3 7 5 16 30 29 21 26 26 21 16 7 29 28 26 24 24 23 24 23 22 21 23 23 23 21 19 18 17 17 15 13 12 10 9 6 4 2 2 4 4 5 5 5 4 4
8 6 7 2 4 13 17 32 22 25 22 12 19 8 21 28 25 25 22 22 23 22 21 21 21 21 21 20 18 17 16 15 13 11 10 9 8 7 4 1 1 1 1 2 4 4 3 1 1
11 10 3 2 2 4 18 12 30 32 11 29 30 9 17 32 27 23 21 23 21 22 21 21 20 20 20 19 17 15 14 12 10 9 9 8 6 3 2 1 1 2 3 2 2 2 3 1 0
12 5 3 5 7 3 14 12 22 15 30 19 7 30 35 35 31 27 24 21 18 19 18 17 18 19 18 18 16 14 12 11 9 9 8 6 5 4 3 3 3 1 2 2 1 2 2 2 1
8 5 11 7 5 7 14 25 21 13 22 19 28 33 34 36 33 31 27 24 21 20 18 17 16 16 16 15 14 12 11 10 9 9 7 5 3 3 0 3 7 2 1 2 1 5 5 6 3
10 11 9 13 11 21 15 13 15 26 14 39 34 37 40 38 37 30 27 22 19 19 17 16 15 15 14 15 13 12 11 9 8 8 6 6 3 3 5 5 3 3 4 3 5 8 10 8 8
5 16 26 13 24 22 11 17 8 16 18 33 40 38 42 41 37 30 29 23 19 20 17 15 15 14 14 12 12 11 10 10 9 8 5 5 5 6 5 5 7 7 6 5 6 7 8 11 10
16 13 23 27 24 20 17 11 13 21 35 35 36 37 37 37 30 28 24 21 21 19 20 16 14 15 13 14 12 10 12 11 8 6 7 8 8 7 9 8 9 9 11 11 12 9 12 15 15
20 33 30 31 27 21 21 18 12 27 34 34 34 31 35 32 31 28 26 24 23 18 19 15 13 15 12 12 11 11 10 12 10 10 8 11 9 11 14 12 11 8 9 12 15 15 16 16 17
37 20 13 17 19 8 28 7 10 32 34 32 31 29 29 26 26 29 25 23 22 20 19 20 17 15 13 11 12 12 13 13 12 11 12 12 12 14 12 12 9 11 10 13 14 14 16 16 15
8 14 8 7 17 16 13 6 13 35 32 28 30 31 30 29 28 26 26 23 20 21 21 19 16 14 15 15 17 17 16 15 15 15 14 12 15 14 13 12 12 13 13 13 12 13 14 15 16
5 8 12 6 6 9 6 8 18 32 31 29 29 30 33 33 32 29 25 23 19 19 19 18 16 14 14 12 12 13 17 17 18 18 14 14 13 14 14 14 15 14 12 12 11 12 14 14 14
5 7 17 14 11 3 11 8 20 29 29 29 30 30 31 36 37 31 27 24 20 19 18 18 16 13 11 10 10 9 11 11 13 14 12 13 11 10 13 15 13 10 9 9 10 13 14 15 18
5 7 12 10 11 8 16 12 19 26 25 24 27 30 31 35 35 30 27 24 22 21 19 18 19 15 14 11 9 8 7 7 9 7 8 11 12 10 12 12 8 8 9 9 11 14 15 15 17
4 7 8 3 12 7 13 17 19 23 28 31 30 30 34 31 34 32 29 27 27 23 20 20 19 16 12 9 9 8 6 6 7 6 8 8 7 8 8 12 14 10 9 10 11 11 14 16 14
6 8 9 10 6 6 11 1 8 15 22 25 27 38 40 37 37 36 32 28 28 26 22 21 17 17 13 11 9 9 8 8 8 8 9 7 7 9 12 7 6 6 6 7 11 12 12 13 11
8 10 14 8 16 7 8 6 6 17 15 13 24 31 38 40 38 37 34 29 31 28 23 21 19 17 16 13 12 11 10 11 10 7 8 8 7 10 3 4 1 1 7 11 9 9 8 8 9
13 8 12 11 16 7 3 5 10 8 9 11 21 37 42 44 44 43 39 34 31 31 27 23 23 20 18 16 13 11 13 12 13 10 10 10 8 3 4 5 3 7 13 10 7 7 5 6 6
14 5 6 5 5 2 11 7 4 10 25 21 18 32 37 43 46 45 40 37 33 33 29 27 27 24 21 17 12 14 13 14 14 14 13 11 13 8 6 7 7 12 12 6 5 4 6 5 5
4 6 2 2 1 6 8 8 11 21 24 18 23 35 41 45 46 48 44 42 38 38 34 31 30 29 25 19 17 15 13 11 13 16 16 15 11 9 7 8 11 9 4 2 3 5 5 4 6
8 10 6 7 3 5 8 7 11 17 36 34 34 43 44 42 48 52 49 47 44 41 38 35 35 33 29 25 24 19 10 8 10 12 10 8 8 11 11 10 9 6 4 1 3 4 6 6 8
9 4 10 7 1 3 4 7 6 6 16 21 28 32 38 42 46 52 52 48 47 44 43 42 39 38 33 30 28 22 12 9 9 8 8 9 12 11 9 9 10 11 8 5 7 7 7 10 11
15 8 3 3 7 4 5 4 6 4 12 12 14 26 37 40 44 49 53 51 50 47 45 44 43 42 37 33 30 24 16 11 9 10 10 11 11 10 10 10 8 6 8 9 9 10 11 13 12
2 3 4 6 5 6 3 6 7 15 17 18 18 30 32 42 47 50 54 53 53 50 49 47 47 44 40 37 33 26 20 16 10 9 10 10 9 8 8 9 9 9 8 8 11 13 13 15 15
8 9 7 6 5 1 5 7 5 13 13 22 25 32 36 44 50 52 53 54 56 55 55 51 50 46 42 39 34 29 22 16 11 11 11 9 7 8 9 10 9 8 8 9 9 10 11 13 15
Wind_Direction
168 164 189 358 69 55 116 127 118 135 176 275 57 101 91 39 71 127 139 142 136 128 124 123 127 130 131 133 132 134 134 130 131 136 137 132 123 123 125 122 119 111 101 93 91 87 78 65 54
171 177 162 32 77 121 71 131 151 148 159 121 90 84 53 71 93 133 139 144 137 131 129 129 129 131 133 133 133 134 134 132 134 132 131 130 124 125 126 120 112 108 99 91 83 76 64 53 37
179 151 341 82 110 124 109 142 129 138 147 146 118 76 76 110 120 139 139 143 139 133 132 133 133 136 136 135 132 131 130 131 134 136 139 135 133 129 130 119 113 106 97 90 74 71 57 34 19
144 171 226 65 196 184 132 136 129 133 158 103 97 78 86 139 140 144 144 146 141 137 137 136 138 140 139 136 131 131 130 128 131 132 134 136 131 129 126 120 112 107 89 68 64 41 19 8 4
136 95 60 18 175 112 136 142 142 130 97 105 100 91 94 143 141 143 142 145 144 140 138 137 139 139 138 140 140 136 136 140 139 137 135 134 133 133 129 129 118 86 66 63 46 19 3 5 1
100 71 50 18 313 93 131 133 119 103 110 105 105 102 107 146 147 152 150 152 150 145 143 142 142 144 143 144 144 147 152 149 150 148 144 139 138 141 143 130 99 75 83 56 15 3 352 352 1
100 71 330 68 14 109 128 132 126 132 133 128 131 106 143 155 158 154 153 151 152 149 149 150 150 150 152 152 147 146 148 150 151 153 148 147 148 152 151 133 56 85 28 5 1 352 338 320 49
84 89 235 213 213 120 152 135 140 143 120 138 126 153 164 164 153 155 151 148 154 155 152 149 152 155 156 159 157 155 152 151 151 156 156 163 172 147 186 56 33 320 319 330 354 8 6 7 243
144 100 237 224 163 193 165 126 150 137 137 154 197 155 149 153 153 153 154 151 150 160 161 155 157 158 159 159 161 166 167 167 163 163 164 172 193 180 206 267 225 317 294 10 89 9 341 6 98
178 138 199 231 179 145 143 135 143 133 148 120 125 139 156 159 161 162 162 157 158 159 162 161 163 159 163 166 167 170 174 171 171 176 182 208 221 182 296 261 305 232 273 345 41 346 335 307 284
219 224 160 205 148 134 122 120 131 136 143 146 152 152 161 163 170 166 168 162 162 167 165 165 159 164 172 167 170 174 177 174 185 190 216 233 242 274 267 267 270 232 258 304 322 325 325 312 312
139 213 153 180 149 139 157 125 102 156 159 153 148 156 162 165 169 172 170 171 175 179 176 172 173 168 173 176 160 168 171 168 170 206 219 242 264 296 284 305 279 281 286 299 319 328 333 335 324
204 120 160 153 146 136 135 101 108 122 143 148 148 154 161 165 174 176 183 190 180 179 181 177 182 168 167 173 180 188 194 206 216 214 232 255 274 282 294 309 317 297 292 294 303 309 307 315 311
143 139 149 142 133 130 118 132 104 139 144 151 156 160 173 177 180 183 180 182 184 186 186 181 196 184 188 199 212 208 214 220 217 220 231 248 255 277 289 292 294 304 290 286 294 300 305 307 308
141 132 130 150 150 130 105 79 127 150 151 153 162 169 174 174 178 181 182 186 191 190 188 191 202 206 204 211 217 222 214 207 226 234 240 249 267 280 279 284 293 301 293 300 296 297 304 309 309
141 122 135 216 143 159 104 147 135 151 153 161 166 174 178 185 187 183 184 187 195 193 196 200 208 214 211 222 226 233 232 232 237 242 245 246 255 270 284 290 293 293 295 294 301 305 303 306 311
322 153 138 161 239 139 110 143 165 160 160 166 177 183 184 189 192 193 200 203 201 203 204 209 212 215 215 216 231 242 233 240 247 245 242 249 254 264 281 278 299 297 290 292 302 309 313 318 320
226 109 162 170 177 109 139 172 167 173 171 176 182 188 189 193 193 196 198 200 198 199 205 211 219 215 206 216 226 233 223 229 237 249 251 253 263 263 272 277 288 295 303 305 309 319 320 322 329
217 133 175 195 152 126 158 161 176 177 183 191 188 191 193 195 194 192 195 199 200 200 203 202 207 211 211 218 230 233 235 236 238 242 247 246 255 267 278 277 281 297 303 305 307 311 317 324 328
234 201 198 217 164 116 167 172 181 181 195 193 189 187 185 187 186 190 195 200 200 200 205 201 199 200 205 216 217 220 224 221 197 206 236 247 261 273 282 293 297 295 299 300 304 308 314 319 326
285 203 199 186 146 69 128 179 189 204 201 204 199 189 185 188 188 192 196 200 199 200 193 190 197 205 212 205 213 216 214 216 229 231 245 254 269 299 302 307 293 276 292 301 295 297 309 313 322
268 215 220 161 160 159 176 206 243 197 198 202 190 186 188 191 193 196 195 196 196 196 192 194 199 197 195 199 212 221 225 223 238 224 219 233 270 297 309 321 4 37 326 315 300 296 299 306 320
241 214 199 168 176 110 185 104 213 137 213 212 199 197 194 198 197 194 195 194 197 199 196 193 192 193 196 203 211 225 224 229 217 217 220 250 288 251 244 276 290 306 315 318 310 307 320 317 327
245 254 52 55 96 133 205 154 249 188 209 210 216 202 197 200 200 196 198 195 197 203 203 200 198 200 204 208 216 233 238 247 239 228 230 245 267 253 250 268 273 291 300 303 309 339 339 333 344
168 67 305 342 120 205 192 190 234 207 217 204 198 198 200 204 196 195 193 196 193 201 207 208 206 207 210 212 217 225 232 218 221 232 241 252 240 240 240 249 285 293 297 341 14 7 355 340 333
210 158 158 200 250 251 141 212 246 200 207 205 200 197 200 198 194 196 198 197 199 203 210 211 211 213 213 215 218 217 221 205 193 196 197 206 231 248 253 266 273 268 291 318 306 312 319 313 323
237 147 188 138 70 68 259 299 329 205 195 185 187 189 196 198 194 196 201 202 202 206 209 213 215 216 214 216 217 215 218 225 217 210 215 235 246 257 257 266 279 283 265 261 260 273 285 296 298
190 174 96 0 164 202 281 259 230 199 181 194 189 187 193 197 197 198 203 207 208 211 212 215 218 216 212 215 221 218 217 216 215 221 230 239 239 236 249 253 263 266 260 266 266 272 280 280 282
78 128 62 121 138 162 224 268 217 199 184 186 200 208 190 195 200 205 210 211 213 214 215 218 219 218 213 215 219 218 218 218 210 216 218 218 222 232 247 263 274 277 274 279 286 283 282 287 286
164 172 147 139 228 153 159 264 263 183 184 183 202 208 207 201 205 212 216 214 216 216 216 219 220 219 216 216 217 221 220 221 224 237 239 239 252 257 264 260 262 266 282 286 286 288 285 285 285